FW6916 Weather Reports


Display with metric or nautical units.
time (UTC)temp
F
wind
direction
speed
MPH
gust
MPH
rain 1hr
in
rain 24hr
in
rain mn
in
humidity
%
barometer
mb
20260906124246 69 186 0.0 4.0 0.00 0.00 0.00 87 1018.6
20260906123742 69 116 0.0 4.0 0.00 0.00 0.00 88 1018.5
20260906123229 68 113 0.0 4.0 0.00 0.00 0.00 89 1018.7
20260906122727 68 118 0.0 0.0 0.00 0.00 0.00 89 1018.7
20260906122713 67 105 0.0 0.0 0.00 0.00 0.00 89 1018.8
20260906121940 67 105 0.0 0.0 0.00 0.00 0.00 90 1018.6
20260906121222 67 102 0.0 0.0 0.00 0.00 0.00 90 1018.5
20260906120726 67 103 0.0 0.0 0.00 0.00 0.00 90 1018.3
20260906120445 67 103 0.0 0.0 0.00 0.00 0.00 90 1018.1
20260906115940 67 103 0.0 0.0 0.00 0.00 0.00 90 1018.1
20260906115446 66 105 0.0 0.0 0.00 0.00 0.00 90 1018.1
20260906114715 66 106 0.0 0.0 0.00 0.00 0.00 90 1018.0
20260906114212 66 101 0.0 0.0 0.00 0.00 0.00 90 1017.8
20260906113703 66 101 0.0 0.0 0.00 0.00 0.00 90 1017.8
20260906113204 66 99 0.0 0.0 0.00 0.00 0.00 90 1017.8
20260906112929 66 103 0.0 0.0 0.00 0.00 0.00 90 1017.7
20260906112206 66 111 0.0 0.0 0.00 0.00 0.00 90 1017.5
20260906111705 66 112 0.0 0.0 0.00 0.00 0.00 90 1017.5
20260906111206 66 110 0.0 0.0 0.00 0.00 0.00 90 1017.5
20260906110941 66 105 0.0 0.0 0.00 0.00 0.00 90 1017.4
20260906110205 66 103 0.0 2.0 0.00 0.00 0.00 90 1017.4
20260906105930 66 106 0.0 2.0 0.00 0.00 0.00 90 1017.5
20260906105203 66 95 0.0 2.0 0.00 0.00 0.00 90 1017.5
20260906104700 66 95 1.0 2.0 0.00 0.00 0.00 90 1017.3
20260906104424 66 104 1.0 2.0 0.00 0.00 0.00 90 1017.2
20260906103702 66 104 1.0 2.0 0.00 0.00 0.00 90 1017.3
20260906103200 67 102 0.0 1.0 0.00 0.00 0.00 90 1017.1
20260906102700 67 103 0.0 1.0 0.00 0.00 0.00 89 1017.1
20260906102423 67 103 0.0 0.0 0.00 0.00 0.00 89 1017.0
20260906101659 67 103 0.0 0.0 0.00 0.00 0.00 89 1017.1
20260906101202 67 101 0.0 0.0 0.00 0.00 0.00 89 1017.1
20260906100702 67 126 0.0 0.0 0.00 0.00 0.00 89 1017.1
20260906100202 67 101 0.0 0.0 0.00 0.00 0.00 89 1017.0
20260906095700 67 98 0.0 0.0 0.00 0.00 0.00 89 1017.0
20260906095203 67 105 0.0 0.0 0.00 0.00 0.00 89 1017.0
20260906094703 67 95 0.0 0.0 0.00 0.00 0.00 89 1016.8
20260906094202 67 96 0.0 0.0 0.00 0.00 0.00 89 1016.8
20260906093700 67 104 0.0 0.0 0.00 0.00 0.00 89 1016.8
20260906093201 67 103 0.0 0.0 0.00 0.00 0.00 89 1016.9
20260906092703 67 107 0.0 0.0 0.00 0.00 0.00 89 1016.9
20260906092202 67 114 0.0 0.0 0.00 0.00 0.00 89 1016.9
20260906091701 67 106 0.0 0.0 0.00 0.00 0.00 89 1016.8
20260906091428 67 105 0.0 0.0 0.00 0.00 0.00 89 1016.8
20260906090701 67 105 0.0 0.0 0.00 0.00 0.00 89 1016.8
20260906090202 67 103 0.0 0.0 0.00 0.00 0.00 89 1016.8
20260906085921 67 103 0.0 0.0 0.00 0.00 0.00 89 1016.8
20260906085201 68 103 0.0 0.0 0.00 0.00 0.00 89 1016.8
20260906084657 68 103 0.0 0.0 0.00 0.00 0.00 88 1016.7
20260906084155 68 103 0.0 0.0 0.00 0.00 0.00 88 1016.7
20260906083655 68 104 0.0 0.0 0.00 0.00 0.00 88 1016.6
20260906083155 68 103 0.0 0.0 0.00 0.00 0.00 88 1016.7
20260906082656 68 106 0.0 0.0 0.00 0.00 0.00 88 1016.7
20260906082153 68 105 0.0 0.0 0.00 0.00 0.00 88 1016.7
20260906081653 68 109 0.0 0.0 0.00 0.00 0.00 88 1016.8
20260906081153 68 110 0.0 0.0 0.00 0.00 0.00 88 1016.9
20260906080655 68 110 0.0 0.0 0.00 0.00 0.00 88 1016.9
20260906080214 68 110 0.0 0.0 0.00 0.00 0.00 88 1016.9
20260906075909 68 114 0.0 0.0 0.00 0.00 0.00 88 1016.9
20260906075147 68 113 0.0 0.0 0.00 0.00 0.00 88 1017.0
20260906074647 68 113 0.0 0.0 0.00 0.00 0.00 87 1017.0
20260906074144 68 113 0.0 0.0 0.00 0.00 0.00 87 1017.0
20260906073644 68 113 0.0 0.0 0.00 0.00 0.00 87 1016.9
20260906073142 69 113 0.0 0.0 0.00 0.00 0.00 87 1016.8
20260906072644 69 112 0.0 0.0 0.00 0.00 0.00 87 1016.9
20260906072141 69 112 0.0 0.0 0.00 0.00 0.00 86 1017.0
20260906071641 69 112 0.0 0.0 0.00 0.00 0.00 86 1016.9
20260906071136 69 112 0.0 0.0 0.00 0.00 0.00 86 1017.0
20260906070636 69 169 0.0 0.0 0.00 0.00 0.00 86 1017.1
20260906070137 69 91 0.0 0.0 0.00 0.00 0.00 86 1017.1
20260906065628 69 111 0.0 0.0 0.00 0.00 0.00 86 1017.1
20260906065127 69 111 0.0 0.0 0.00 0.00 0.00 86 1017.1
20260906064626 69 111 0.0 0.0 0.00 0.00 0.00 85 1017.2
20260906064354 69 108 0.0 0.0 0.00 0.00 0.00 85 1017.1
20260906063632 69 108 0.0 0.0 0.00 0.00 0.00 85 1017.0
20260906063128 69 108 0.0 0.0 0.00 0.00 0.00 85 1017.0
20260906062629 69 108 0.0 0.0 0.00 0.00 0.00 85 1017.0
20260906062128 70 105 0.0 0.0 0.00 0.00 0.00 85 1017.1
20260906061641 70 105 0.0 0.0 0.00 0.00 0.00 85 1017.1
20260906061126 70 105 0.0 0.0 0.00 0.00 0.00 85 1017.1
20260906060847 70 144 0.0 0.0 0.00 0.00 0.00 85 1017.1
20260906060127 70 96 0.0 0.0 0.00 0.00 0.00 85 1017.0
20260906055623 70 110 0.0 0.0 0.00 0.00 0.00 85 1017.0
20260906055122 70 107 0.0 0.0 0.00 0.00 0.00 85 1016.9
20260906054620 70 126 0.0 0.0 0.00 0.00 0.00 84 1016.8
20260906054122 70 138 0.0 2.0 0.00 0.00 0.00 84 1016.8
20260906053622 70 134 0.0 2.0 0.00 0.00 0.00 84 1016.8
20260906053119 70 108 0.0 2.0 0.00 0.00 0.00 84 1016.8
20260906053104 70 108 0.0 2.0 0.00 0.00 0.00 84 1016.9
20260906052117 70 113 0.0 3.0 0.00 0.00 0.00 84 1016.9
20260906051617 70 104 0.0 3.0 0.00 0.00 0.00 84 1016.8
20260906051346 71 103 0.0 3.0 0.00 0.00 0.00 84 1016.7
20260906050616 71 118 0.0 3.0 0.00 0.00 0.00 83 1016.6
20260906050127 71 110 0.0 2.0 0.00 0.00 0.00 83 1016.5
20260906045619 71 109 0.0 2.0 0.00 0.00 0.00 83 1016.5
20260906045111 71 113 0.0 2.0 0.00 0.00 0.00 83 1016.6
20260906044607 71 104 1.0 2.0 0.00 0.00 0.00 83 1016.7
20260906044059 71 105 0.0 5.0 0.00 0.00 0.00 82 1016.6
20260906043553 71 103 0.0 5.0 0.00 0.00 0.00 82 1016.4
20260906043048 71 103 1.0 5.0 0.00 0.00 0.00 82 1016.4
20260906042542 71 110 0.0 5.0 0.00 0.00 0.00 81 1016.3
20260906042043 72 136 0.0 2.0 0.00 0.00 0.00 81 1016.3
20260906042036 72 136 0.0 2.0 0.00 0.00 0.00 80 1016.2
20260906041036 72 136 1.0 5.0 0.00 0.00 0.00 80 1016.1
20260906040536 72 197 1.0 5.0 0.00 0.00 0.00 80 1016.0
20260906040036 72 103 1.0 6.0 0.00 0.00 0.00 80 1015.9
20260906035537 72 215 2.0 6.0 0.00 0.00 0.00 80 1015.8
20260906035051 72 129 1.0 6.0 0.00 0.00 0.00 79 1015.8
20260906034538 72 158 2.0 7.0 0.00 0.00 0.00 79 1015.8
20260906034034 72 107 2.0 7.0 0.00 0.00 0.00 79 1015.8
20260906033536 72 134 2.0 7.0 0.00 0.00 0.00 79 1015.8
20260906033036 73 212 2.0 7.0 0.00 0.00 0.00 79 1015.9
20260906032534 73 120 3.0 8.0 0.00 0.00 0.00 79 1015.9
20260906032035 73 162 2.0 8.0 0.00 0.00 0.00 78 1015.8
20260906031534 73 167 1.0 7.0 0.00 0.00 0.00 78 1015.7
20260906031031 73 163 2.0 12.0 0.00 0.00 0.00 79 1015.8
20260906030529 73 162 2.0 12.0 0.00 0.00 0.00 78 1015.7
20260906030030 73 109 3.0 12.0 0.00 0.00 0.00 79 1015.7
20260906025529 73 141 3.0 12.0 0.00 0.00 0.00 78 1015.7
20260906025029 73 129 2.0 10.0 0.00 0.00 0.00 79 1015.7
20260906024542 73 101 2.0 8.0 0.00 0.00 0.00 78 1015.7
20260906024028 73 181 2.0 10.0 0.00 0.00 0.00 78 1015.8
20260906023527 73 170 3.0 10.0 0.00 0.00 0.00 78 1015.7
20260906023022 73 127 3.0 10.0 0.00 0.00 0.00 78 1015.7
20260906022523 73 173 3.0 10.0 0.00 0.00 0.00 78 1015.7
20260906022023 73 235 2.0 8.0 0.00 0.00 0.00 78 1015.7
20260906021526 73 210 2.0 6.0 0.00 0.00 0.00 78 1015.6
20260906021019 73 98 2.0 9.0 0.00 0.00 0.00 78 1015.6
20260906020521 73 140 2.0 9.0 0.00 0.00 0.00 78 1015.7
20260906020022 73 223 3.0 9.0 0.00 0.00 0.00 78 1015.7
20260906015523 73 103 3.0 9.0 0.00 0.00 0.00 78 1015.6
20260906015018 73 129 2.0 7.0 0.00 0.00 0.00 78 1015.6
20260906014512 73 156 2.0 6.0 0.00 0.00 0.00 78 1015.6
20260906014456 73 138 2.0 11.0 0.00 0.00 0.00 78 1015.6
20260906013504 73 126 2.0 11.0 0.00 0.00 0.00 78 1015.7
20260906013001 73 149 2.0 11.0 0.00 0.00 0.00 78 1015.6
20260906012500 73 217 2.0 11.0 0.00 0.00 0.00 78 1015.7
20260906011959 73 110 2.0 4.0 0.00 0.00 0.00 78 1015.7
20260906011722 73 162 1.0 7.0 0.00 0.00 0.00 78 1015.6
20260906010958 73 56 1.0 7.0 0.00 0.00 0.00 79 1015.7
20260906010501 73 113 2.0 12.0 0.00 0.00 0.00 79 1015.7
20260906010231 73 130 2.0 12.0 0.00 0.00 0.00 78 1015.8
20260906005457 73 143 3.0 12.0 0.00 0.00 0.00 78 1015.7
20260906004956 73 139 3.0 12.0 0.00 0.00 0.00 78 1015.6
20260906004455 74 110 3.0 8.0 0.00 0.00 0.00 78 1015.5
20260906003955 74 129 3.0 8.0 0.00 0.00 0.00 77 1015.5
20260906003453 74 171 2.0 8.0 0.00 0.00 0.00 77 1015.5
20260906002956 74 133 2.0 7.0 0.00 0.00 0.00 77 1015.4
20260906002459 75 73 2.0 7.0 0.00 0.00 0.00 76 1015.3
20260906002006 75 138 2.0 7.0 0.00 0.00 0.00 76 1015.2
20260906001444 76 107 2.0 9.0 0.00 0.00 0.00 76 1015.2
20260906001209 76 148 2.0 10.0 0.00 0.00 0.00 76 1015.1
20260906000433 76 131 2.0 10.0 0.00 0.00 0.00 75 1015.0
20260905235924 76 165 3.0 13.0 0.00 0.00 0.00 75 1014.9
20260905235412 77 135 3.0 13.0 0.00 0.00 0.00 74 1014.7
20260905234907 77 186 3.0 13.0 0.00 0.00 0.00 74 1014.6
20260905234400 78 120 3.0 13.0 0.00 0.00 0.00 73 1014.6
20260905233901 78 165 3.0 10.0 0.00 0.00 0.00 73 1014.6
20260905233416 79 123 3.0 10.0 0.00 0.00 0.00 72 1014.6
20260905232901 79 134 2.0 7.0 0.00 0.00 0.00 72 1014.7
20260905232402 80 129 1.0 5.0 0.00 0.00 0.00 71 1014.6
20260905231857 80 116 2.0 6.0 0.00 0.00 0.00 71 1014.6
20260905231402 80 124 1.0 8.0 0.00 0.00 0.00 71 1014.5
20260905230900 80 156 1.0 8.0 0.00 0.00 0.00 71 1014.5
20260905230357 80 240 2.0 8.0 0.00 0.00 0.00 70 1014.5
20260905225857 81 141 3.0 9.0 0.00 0.00 0.00 69 1014.3
20260905225356 82 154 3.0 9.0 0.00 0.00 0.00 67 1014.2
20260905224853 82 121 2.0 7.0 0.00 0.00 0.00 65 1014.0
20260905224622 83 105 2.0 7.0 0.00 0.00 0.00 65 1013.9
20260905223851 83 98 2.0 5.0 0.00 0.00 0.00 65 1014.0
20260905223350 83 112 2.0 8.0 0.00 0.00 0.00 64 1013.9
20260905222853 83 109 2.0 8.0 0.00 0.00 0.00 63 1013.9
20260905222342 83 75 3.0 8.0 0.00 0.00 0.00 64 1013.8
20260905221837 84 133 3.0 8.0 0.00 0.00 0.00 63 1013.9
20260905221332 84 168 3.0 7.0 0.00 0.00 0.00 63 1013.8
20260905221049 84 141 2.0 6.0 0.00 0.00 0.00 63 1013.8
20260905220330 84 100 2.0 3.0 0.00 0.00 0.00 64 1013.7
20260905215829 84 94 2.0 4.0 0.00 0.00 0.00 64 1013.7
20260905215327 83 91 2.0 7.0 0.00 0.00 0.00 64 1013.9
20260905214828 83 96 2.0 7.0 0.00 0.00 0.00 64 1014.0
20260905214327 84 125 3.0 7.0 0.00 0.00 0.00 62 1014.1
20260905213822 85 83 2.0 7.0 0.00 0.00 0.00 62 1014.1
20260905213321 85 298 2.0 4.0 0.00 0.00 0.00 64 1014.0
20260905212820 85 90 2.0 4.0 0.00 0.00 0.00 63 1014.0
20260905212321 85 59 1.0 4.0 0.00 0.00 0.00 63 1014.0
20260905212055 85 113 1.0 4.0 0.00 0.00 0.00 63 1014.0
20260905211322 85 106 2.0 4.0 0.00 0.00 0.00 64 1014.1
20260905210822 85 139 1.0 4.0 0.00 0.00 0.00 65 1014.1
20260905210319 85 79 1.0 3.0 0.00 0.00 0.00 65 1014.1
20260905205818 85 160 0.0 3.0 0.00 0.00 0.00 64 1014.1
20260905205543 85 130 0.0 3.0 0.00 0.00 0.00 65 1014.3
20260905204815 84 155 1.0 3.0 0.00 0.00 0.00 67 1014.5
20260905204316 83 87 1.0 3.0 0.00 0.00 0.00 67 1014.5
20260905203815 83 89 1.0 3.0 0.00 0.00 0.00 68 1014.5
20260905203317 82 75 1.0 3.0 0.00 0.00 0.00 68 1014.6
20260905202811 81 106 1.0 3.0 0.00 0.00 0.00 70 1014.6
20260905202310 81 84 1.0 4.0 0.00 0.00 0.00 70 1014.6
20260905201809 82 80 1.0 4.0 0.00 0.00 0.00 69 1014.7
20260905201310 82 184 2.0 4.0 0.00 0.00 0.00 69 1014.7
20260905201030 82 121 2.0 5.0 0.00 0.00 0.00 68 1014.6
20260905200308 83 108 2.0 5.0 0.00 0.00 0.00 68 1014.6
20260905195812 83 192 2.0 7.0 0.00 0.00 0.00 67 1014.6
20260905195530 84 124 2.0 7.0 0.00 0.00 0.00 67 1014.6
20260905194810 84 115 3.0 7.0 0.00 0.00 0.00 65 1014.6
20260905194314 85 108 3.0 9.0 0.00 0.00 0.00 66 1014.6
20260905193809 84 98 3.0 9.0 0.00 0.00 0.00 66 1014.5
20260905193309 85 116 3.0 9.0 0.00 0.00 0.00 65 1014.3
20260905192808 86 172 3.0 8.0 0.00 0.00 0.00 64 1014.5
20260905192311 87 138 3.0 6.0 0.00 0.00 0.00 65 1014.3
20260905191809 87 102 3.0 6.0 0.00 0.00 0.00 64 1014.3
20260905191534 87 124 2.0 6.0 0.00 0.00 0.00 64 1014.5
20260905190812 87 166 2.0 5.0 0.00 0.00 0.00 63 1014.5
20260905190321 87 170 2.0 5.0 0.00 0.00 0.00 63 1014.5
20260905185809 87 68 2.0 6.0 0.00 0.00 0.00 64 1014.5
20260905185308 87 94 2.0 6.0 0.00 0.00 0.00 65 1014.5
20260905184811 86 144 3.0 6.0 0.00 0.00 0.00 66 1014.5
20260905184310 86 94 3.0 6.0 0.00 0.00 0.00 66 1014.5
20260905183810 86 85 2.0 5.0 0.00 0.00 0.00 66 1014.5
20260905183308 86 121 2.0 5.0 0.00 0.00 0.00 66 1014.7
20260905183257 87 143 2.0 5.0 0.00 0.00 0.00 65 1014.6
20260905182539 87 46 2.0 4.0 0.00 0.00 0.00 65 1014.6
20260905181807 86 113 2.0 8.0 0.00 0.00 0.00 66 1014.6
20260905181308 86 162 2.0 8.0 0.00 0.00 0.00 66 1014.6
20260905180807 87 96 2.0 8.0 0.00 0.00 0.00 65 1014.5
20260905180319 87 198 2.0 8.0 0.00 0.00 0.00 66 1014.5
20260905175806 86 212 2.0 5.0 0.00 0.00 0.00 67 1014.5
20260905175307 87 107 2.0 5.0 0.00 0.00 0.00 65 1014.3
20260905174807 87 93 1.0 4.0 0.00 0.00 0.00 66 1014.3
20260905174303 87 82 1.0 4.0 0.00 0.00 0.00 65 1014.3
20260905173802 88 123 1.0 4.0 0.00 0.00 0.00 65 1014.3
20260905173528 88 92 1.0 3.0 0.00 0.00 0.00 66 1014.3
20260905173023 87 137 1.0 3.0 0.00 0.00 0.00 66 1014.5
20260905172305 87 111 1.0 3.0 0.00 0.00 0.00 65 1014.5
20260905171803 87 101 1.0 3.0 0.00 0.00 0.00 66 1014.3
20260905171527 87 117 1.0 7.0 0.00 0.00 0.00 65 1014.5
20260905170803 87 130 1.0 7.0 0.00 0.00 0.00 65 1014.5
20260905170306 88 82 2.0 7.0 0.00 0.00 0.00 64 1014.5
20260905165756 88 179 2.0 7.0 0.00 0.00 0.00 65 1014.5
20260905165257 87 122 1.0 6.0 0.00 0.00 0.00 65 1014.5
20260905164756 87 136 2.0 6.0 0.00 0.00 0.00 65 1014.7
20260905164309 87 115 2.0 6.0 0.00 0.00 0.00 66 1014.7
20260905163756 87 173 2.0 6.0 0.00 0.00 0.00 67 1014.6
20260905163256 86 124 2.0 6.0 0.00 0.00 0.00 67 1014.8
20260905162805 86 136 2.0 5.0 0.00 0.00 0.00 67 1014.7
20260905162259 86 205 1.0 5.0 0.00 0.00 0.00 67 1014.7
20260905161756 85 113 1.0 3.0 0.00 0.00 0.00 68 1014.7
20260905161511 85 116 1.0 0.0 0.00 0.00 0.00 70 1014.7
20260905160859 85 93 1.0 4.0 0.00 0.00 0.00 69 1014.8
20260905160358 85 116 1.0 4.0 0.00 0.00 0.00 69 1014.8
20260905160125 85 96 1.0 3.0 0.00 0.00 0.00 69 1014.7
20260905155355 85 101 1.0 5.0 0.00 0.00 0.00 69 1014.7
20260905155115 85 124 1.0 5.0 0.00 0.00 0.00 69 1014.7
20260905154354 84 156 1.0 5.0 0.00 0.00 0.00 70 1014.6
20260905153853 84 97 2.0 5.0 0.00 0.00 0.00 70 1014.6
20260905153355 83 131 2.0 4.0 0.00 0.00 0.00 71 1014.5
20260905153117 83 128 1.0 4.0 0.00 0.00 0.00 72 1014.6
20260905152354 83 111 1.0 3.0 0.00 0.00 0.00 71 1014.6
20260905151855 82 119 2.0 3.0 0.00 0.00 0.00 73 1014.5
20260905151841 82 115 2.0 3.0 0.00 0.00 0.00 73 1014.5
20260905150853 82 117 1.0 4.0 0.00 0.00 0.00 73 1014.3
20260905150351 82 116 1.0 4.0 0.00 0.00 0.00 75 1014.3
20260905150119 81 127 1.0 4.0 0.00 0.00 0.00 76 1014.2
20260905145351 80 98 1.0 4.0 0.00 0.00 0.00 76 1014.1
20260905144849 80 172 1.0 4.0 0.00 0.00 0.00 77 1014.1
20260905144347 80 171 1.0 6.0 0.00 0.00 0.00 77 1014.0
20260905143846 79 114 1.0 6.0 0.00 0.00 0.00 79 1014.0
20260905143346 78 188 1.0 6.0 0.00 0.00 0.00 81 1014.0
20260905142849 77 127 1.0 6.0 0.00 0.00 0.00 81 1014.1
20260905142347 76 121 1.0 4.0 0.00 0.00 0.00 82 1014.1
20260905141842 76 117 2.0 3.0 0.00 0.00 0.00 82 1014.1
20260905141606 76 107 2.0 3.0 0.00 0.00 0.00 83 1014.0
20260905140842 76 133 1.0 3.0 0.00 0.00 0.00 82 1013.9
20260905140344 76 110 1.0 4.0 0.00 0.00 0.00 83 1013.9
20260905135834 76 141 2.0 8.0 0.00 0.00 0.00 83 1013.8
20260905135334 76 87 1.0 8.0 0.00 0.00 0.00 83 1013.7
20260905134832 77 96 2.0 8.0 0.00 0.00 0.00 83 1013.7
20260905134335 77 229 2.0 8.0 0.00 0.00 0.00 83 1013.7
20260905133832 77 178 2.0 7.0 0.00 0.00 0.00 82 1013.8
20260905133559 78 287 2.0 7.0 0.00 0.00 0.00 82 1013.7
20260905133058 78 162 2.0 4.0 0.00 0.00 0.00 82 1013.6
20260905132332 78 102 1.0 3.0 0.00 0.00 0.00 82 1013.8
20260905131834 78 101 1.0 3.0 0.00 0.00 0.00 82 1013.9
20260905131332 78 107 1.0 3.0 0.00 0.00 0.00 82 1014.0
20260905131051 77 108 1.0 3.0 0.00 0.00 0.00 84 1013.9
20260905130329 77 116 0.0 3.0 0.00 0.00 0.00 84 1013.8
20260905125830 77 87 0.0 1.0 0.00 0.00 0.00 84 1013.5
20260905125319 77 109 0.0 1.0 0.00 0.00 0.00 84 1013.4
20260905124812 77 127 0.0 1.0 0.00 0.00 0.00 85 1013.3
20260905124534 76 132 0.0 1.0 0.00 0.00 0.00 85 1013.3